[[{"header":{"parameterUnit":"m.s-1","parameterCategory":2,"la1":30.2992,"la2":30.254,"lo1":-89.0895,"lo2":-89.0443,"dy":0.0025,"dx":0.0025,"nx":19,"ny":19,"refTime":"2026-03-16T21:00:00:Z","depth":"0","parameterNumber":2,"parameterNumberName":"U-component_of_CURRENTS"},"data":[0,0,0,0.4118,0.4121,0.4225,0.4225,0.4241,0.4241,0,0,0,0,0,0,0,0,0,0,0,0.406,0.4061,0.4118,0.4121,0.4225,0.4225,0.4241,0.4241,0,0,0,0,0,0,0,0,0,0,0,0.406,0.4061,0.4062,0.4122,0.4225,0.4225,0.4241,0.4187,0,0,0,0,0,0,0,0,0,0,0.4099,0.4071,0.4061,0.4062,0.4122,0.4225,0.4225,0.4185,0.419,0.4167,0,0.4186,0,0.423,0.4241,0.4241,0,0,0,0.4101,0.4068,0.4101,0.4062,0.4124,0.4225,0.4172,0.4189,0.4194,0.4173,0.4187,0.4189,0.4231,0.4241,0.4241,0.4295,0.4295,0,0,0.4096,0.4071,0.4098,0.4105,0.4153,0.4169,0.4176,0.4193,0.4193,0.4187,0.4191,0.4231,0.4241,0.4242,0.4294,0.4295,0,0,0,0.4092,0.4067,0.4102,0.4102,0.414,0.4173,0.418,0.4192,0.4206,0.4191,0.4231,0.4242,0.4242,0.4293,0.4294,0.4402,0,0,0,0.4088,0.4067,0.4099,0.4085,0.4141,0.4186,0.4178,0.4204,0.4209,0.4231,0.4242,0.4242,0.4293,0.4294,0.4397,0.4444,0,0,0,0.4055,0.4064,0.4078,0.4084,0.4141,0.4187,0.4202,0.4206,0.4233,0.4241,0.4242,0.4292,0.4294,0.4394,0.4437,0.4516,0,0,0,0.4023,0.4058,0.4077,0.4135,0.4141,0.4239,0.4202,0.4255,0.4268,0.4242,0.4293,0.4294,0.4392,0.4433,0.4512,0.4664,0.4697,0,0,0.4052,0.406,0.4099,0.4121,0.4224,0.4223,0.4331,0.432,0.4276,0.4274,0.4276,0.4399,0.4437,0.4515,0.4739,0.4771,0,0,0,0.41,0.4126,0.4161,0.4226,0.4292,0.4371,0.4383,0.4376,0.438,0.4296,0.4395,0.4416,0.4462,0.4544,0.4569,0.4813,0.43,0.43,0.43,0.4093,0.4153,0.4225,0.4311,0.438,0.4468,0.4509,0.45,0.4457,0.4468,0.4501,0.463,0.4718,0.4739,0.4988,0.4498,0.4498,0.4499,0.4499,0.4138,0.417,0.4269,0.4358,0.4456,0.4544,0.4625,0.4618,0.4671,0.4593,0.4634,0.465,0.4773,0.5029,0.4506,0.4505,0.4504,0.4503,0.4503,0.4101,0.4123,0.4196,0.4329,0.4454,0.4579,0.4713,0.4774,0.4753,0.4807,0.49,0.49,0.5127,0.4842,0.4843,0.4843,0.4844,0.4844,0.4844,0.4009,0.4087,0.4141,0.4299,0.4373,0.4552,0.4764,0.4866,0.5024,0.5034,0.5035,0.5225,0.4734,0.4724,0.4853,0.4852,0.4851,0.485,0.4849,0.3917,0.3965,0.4037,0.4109,0.4311,0.4462,0.4725,0.5069,0.5189,0.5294,0.5597,0.5152,0.5134,0.5114,0.5112,0.5335,0.5335,0.5335,0.5335,0.3823,0.3869,0.3922,0.4007,0.4176,0.4403,0.4656,0.5063,0.5603,0.5888,0.5935,0.5932,0.5901,0.5925,0.5887,0.5899,0.6316,0.6317,0.6319,0.3741,0.3791,0.3777,0.3912,0.4094,0.4321,0.4554,0.5061,0.5985,0.6377,0.6257,0.6215,0.6219,0.615,0.6179,0.6106,0.6118,0,0]},{"header":{"parameterUnit":"m.s-1","parameterCategory":2,"la1":30.2992,"la2":30.254,"lo1":-89.0895,"lo2":-89.0443,"dy":0.0025,"dx":0.0025,"nx":19,"ny":19,"refTime":"2026-03-16T21:00:00:Z","depth":"0","parameterNumber":3,"parameterNumberName":"V-component_of_CURRENTS"},"data":[0,0,0,-0.0792,-0.0793,-0.0865,-0.0865,-0.0947,-0.0947,0,0,0,0,0,0,0,0,0,0,0,-0.0767,-0.0766,-0.0792,-0.0793,-0.0865,-0.0865,-0.0947,-0.0947,0,0,0,0,0,0,0,0,0,0,0,-0.0767,-0.0767,-0.0766,-0.0793,-0.0865,-0.0865,-0.0947,-0.09,0,0,0,0,0,0,0,0,0,0,-0.0834,-0.0808,-0.0767,-0.0766,-0.0793,-0.0864,-0.0865,-0.0898,-0.0903,-0.0905,0,-0.0902,0,-0.0917,-0.0951,-0.0951,0,0,0,-0.0814,-0.0804,-0.0815,-0.0766,-0.0794,-0.0864,-0.0838,-0.0901,-0.0906,-0.0911,-0.0903,-0.0906,-0.0918,-0.0951,-0.0951,-0.089,-0.0889,0,0,-0.081,-0.0793,-0.0811,-0.0818,-0.0793,-0.0836,-0.084,-0.0905,-0.0906,-0.0903,-0.0908,-0.092,-0.0951,-0.0952,-0.0891,-0.0889,0,0,0,-0.0785,-0.079,-0.08,-0.0814,-0.0823,-0.0837,-0.0843,-0.0904,-0.0905,-0.0909,-0.0921,-0.0952,-0.0952,-0.0892,-0.089,-0.0755,0,0,0,-0.0783,-0.0773,-0.0798,-0.079,-0.0821,-0.0866,-0.084,-0.0901,-0.0908,-0.092,-0.0952,-0.0953,-0.0893,-0.0891,-0.0761,-0.068,0,0,0,-0.0767,-0.0772,-0.0773,-0.0789,-0.081,-0.0866,-0.0872,-0.0903,-0.0914,-0.0951,-0.0953,-0.0894,-0.0891,-0.0767,-0.069,-0.0589,0,0,0,-0.0759,-0.0725,-0.0772,-0.0737,-0.0809,-0.0792,-0.0872,-0.0884,-0.0907,-0.0952,-0.0893,-0.089,-0.0769,-0.0696,-0.0596,-0.0409,-0.0363,0,0,-0.0704,-0.0718,-0.0695,-0.0737,-0.0682,-0.0785,-0.0731,-0.0806,-0.0868,-0.0878,-0.0877,-0.0759,-0.0691,-0.0591,-0.0265,-0.0223,0,0,0,-0.0669,-0.0643,-0.0638,-0.0621,-0.0638,-0.0625,-0.0711,-0.0728,-0.0741,-0.0866,-0.0747,-0.0707,-0.0648,-0.0549,-0.0515,-0.0628,-0.0879,-0.0879,-0.0879,-0.0573,-0.057,-0.0504,-0.0495,-0.0483,-0.052,-0.0507,-0.0543,-0.0642,-0.0613,-0.0588,-0.0405,-0.0297,-0.027,-0.0388,-0.0591,-0.059,-0.059,-0.059,-0.0451,-0.0393,-0.0384,-0.0315,-0.0308,-0.0273,-0.0296,-0.0351,-0.0318,-0.0434,-0.0385,-0.0401,-0.0224,-0.0364,-0.0581,-0.0582,-0.0584,-0.0584,-0.0585,-0.0365,-0.0327,-0.0294,-0.018,-0.0094,-0.0109,0.0022,-0.0071,-0.0165,-0.0122,-0.0043,-0.0044,-0.0175,-0.0115,-0.0114,-0.0113,-0.0112,-0.0112,-0.0111,-0.0282,-0.0241,-0.0125,-0.0028,0.0066,0.0181,0.0198,0.0237,0.0218,0.0149,0.015,-0.0097,-0.026,-0.0287,-0.0098,-0.0101,-0.0102,-0.0103,-0.0104,-0.0153,-0.0133,0.0043,0.015,0.0382,0.0625,0.0598,0.0725,0.0684,0.0728,0.0345,0.0296,0.0275,0.0248,0.0233,0.0546,0.0546,0.0546,0.0546,-0.0059,-0.0041,0.0221,0.0425,0.0671,0.084,0.1236,0.1314,0.0997,0.0812,0.0544,0.0448,0.0427,0.0404,0.0373,0.0355,0.0691,0.0691,0.0691,0.0045,0.0111,0.0323,0.0525,0.0807,0.1131,0.1595,0.1938,0.1349,0.0672,0.0352,0.0346,0.0167,0.0142,0.0065,0.0031,-0.0015,0,0]}],[{"header":{"parameterUnit":"m.s-1","parameterCategory":2,"la1":30.2992,"la2":30.254,"lo1":-89.0895,"lo2":-89.0443,"dy":0.0025,"dx":0.0025,"nx":19,"ny":19,"refTime":"2026-03-16T21:00:00:Z","depth":"2","parameterNumber":2,"parameterNumberName":"U-component_of_CURRENTS"},"data":[0,0,0,0.4103,0.4106,0.421,0.421,0.4219,0.4219,0,0,0,0,0,0,0,0,0,0,0,0.4045,0.4046,0.4103,0.4106,0.421,0.421,0.4219,0.4219,0,0,0,0,0,0,0,0,0,0,0,0.4045,0.4046,0.4047,0.4107,0.421,0.421,0.4219,0.4167,0,0,0,0,0,0,0,0,0,0,0.4079,0.4053,0.4046,0.4047,0.4107,0.421,0.421,0.4166,0.417,0.4143,0,0.4163,0,0.4207,0.4219,0.4219,0,0,0,0.4086,0.405,0.4083,0.4047,0.4109,0.421,0.4158,0.4169,0.4174,0.4149,0.4163,0.4165,0.4207,0.4219,0.4219,0.4258,0.4258,0,0,0.4081,0.4056,0.408,0.4086,0.4138,0.4154,0.4161,0.4173,0.4173,0.4164,0.4167,0.4208,0.4219,0.4219,0.4257,0.4258,0,0,0,0.4077,0.4052,0.4087,0.4084,0.4123,0.4158,0.4166,0.4172,0.4186,0.4167,0.4208,0.4219,0.4219,0.4257,0.4258,0.4367,0,0,0,0.4073,0.4053,0.4085,0.407,0.4123,0.4168,0.4164,0.4184,0.4189,0.4208,0.4219,0.4219,0.4256,0.4257,0.4363,0.4412,0,0,0,0.404,0.405,0.4063,0.4069,0.4127,0.417,0.4184,0.4186,0.4213,0.4219,0.4219,0.4256,0.4257,0.436,0.4405,0.4482,0,0,0,0.4008,0.4043,0.4062,0.412,0.4126,0.4224,0.4184,0.4236,0.4247,0.4219,0.4257,0.4258,0.4358,0.4401,0.4478,0.4493,0.4515,0,0,0.4037,0.4045,0.4084,0.4106,0.4209,0.4208,0.4312,0.4298,0.425,0.4239,0.4241,0.4365,0.4405,0.4481,0.4557,0.4578,0,0,0,0.4085,0.4111,0.4146,0.4211,0.4276,0.4353,0.4362,0.4351,0.4347,0.4268,0.4356,0.4378,0.4423,0.4422,0.4439,0.4263,0.4263,0.4263,0.4263,0.4078,0.4138,0.421,0.4296,0.4364,0.4448,0.4485,0.4467,0.4423,0.4428,0.4462,0.4586,0.4585,0.4598,0.4453,0.4454,0.4454,0.4455,0.4455,0.4123,0.4155,0.4254,0.4343,0.4439,0.4524,0.4595,0.4585,0.4628,0.4549,0.4588,0.453,0.4622,0.4463,0.4462,0.4461,0.446,0.4459,0.4458,0.4087,0.4109,0.4182,0.4314,0.4437,0.456,0.4689,0.4742,0.4713,0.4764,0.4765,0.4762,0.4664,0.4799,0.4799,0.48,0.4801,0.4801,0.4801,0.3995,0.4073,0.4127,0.4285,0.4359,0.4537,0.4742,0.4839,0.493,0.4887,0.4887,0.4702,0.4691,0.4683,0.481,0.4809,0.4807,0.4807,0.4806,0.3903,0.3951,0.4024,0.4095,0.4298,0.4202,0.4634,0.4918,0.5079,0.5138,0.495,0.4943,0.4911,0.4896,0.4893,0.5067,0.5067,0.5067,0.5067,0.381,0.3855,0.3908,0.3993,0.4163,0.4067,0.3953,0.3928,0.4271,0.4253,0.4284,0.4133,0.4149,0.4059,0.4063,0.4036,0.3985,0.3981,0.3978,0.3728,0.3778,0.3764,0.3898,0.408,0.3739,0.3166,0.2703,0.3204,0.3894,0.3673,0.5076,0.4945,0.4932,0.4865,0.4844,0.4829,0,0]},{"header":{"parameterUnit":"m.s-1","parameterCategory":2,"la1":30.2992,"la2":30.254,"lo1":-89.0895,"lo2":-89.0443,"dy":0.0025,"dx":0.0025,"nx":19,"ny":19,"refTime":"2026-03-16T21:00:00:Z","depth":"2","parameterNumber":3,"parameterNumberName":"V-component_of_CURRENTS"},"data":[0,0,0,-0.0766,-0.0767,-0.0839,-0.0839,-0.0915,-0.0915,0,0,0,0,0,0,0,0,0,0,0,-0.0741,-0.074,-0.0766,-0.0767,-0.0839,-0.0839,-0.0915,-0.0915,0,0,0,0,0,0,0,0,0,0,0,-0.0741,-0.0741,-0.074,-0.0767,-0.0839,-0.0839,-0.0914,-0.0869,0,0,0,0,0,0,0,0,0,0,-0.0804,-0.0779,-0.0741,-0.074,-0.0767,-0.0839,-0.0839,-0.0868,-0.0872,-0.0871,0,-0.0868,0,-0.0884,-0.0918,-0.0918,0,0,0,-0.0788,-0.0776,-0.0786,-0.074,-0.0768,-0.0838,-0.0812,-0.087,-0.0876,-0.0877,-0.0869,-0.0872,-0.0885,-0.0918,-0.0918,-0.0846,-0.0845,0,0,-0.0784,-0.0767,-0.0783,-0.0789,-0.0768,-0.081,-0.0814,-0.0874,-0.0875,-0.087,-0.0874,-0.0886,-0.0918,-0.0919,-0.0847,-0.0846,0,0,0,-0.0758,-0.0764,-0.0774,-0.0785,-0.0794,-0.0811,-0.0817,-0.0874,-0.0874,-0.0875,-0.0887,-0.0919,-0.0919,-0.0848,-0.0847,-0.0715,0,0,0,-0.0757,-0.0747,-0.0772,-0.0764,-0.0793,-0.0838,-0.0814,-0.087,-0.0877,-0.0887,-0.0919,-0.0919,-0.085,-0.0848,-0.0721,-0.0641,0,0,0,-0.0741,-0.0746,-0.0747,-0.0763,-0.0784,-0.0837,-0.0843,-0.0873,-0.0883,-0.0918,-0.092,-0.0851,-0.0848,-0.0726,-0.0651,-0.0551,0,0,0,-0.0733,-0.0699,-0.0746,-0.0711,-0.0783,-0.0765,-0.0843,-0.0854,-0.0875,-0.0919,-0.085,-0.0847,-0.0728,-0.0657,-0.0557,-0.0355,-0.0308,0,0,-0.0678,-0.0692,-0.0669,-0.0711,-0.0655,-0.0758,-0.0702,-0.0774,-0.0833,-0.0836,-0.0835,-0.0719,-0.0652,-0.0552,-0.0204,-0.0161,0,0,0,-0.0643,-0.0617,-0.0612,-0.0595,-0.0611,-0.0597,-0.068,-0.0695,-0.0702,-0.083,-0.0703,-0.0664,-0.0605,-0.0497,-0.0462,-0.0835,-0.0835,-0.0835,-0.0835,-0.0547,-0.0545,-0.0477,-0.0468,-0.0456,-0.049,-0.0475,-0.0505,-0.0602,-0.057,-0.0545,-0.036,-0.0242,-0.0214,-0.0545,-0.0545,-0.0544,-0.0544,-0.0543,-0.0426,-0.0368,-0.0358,-0.0289,-0.028,-0.0244,-0.0261,-0.0314,-0.0274,-0.0389,-0.034,-0.0349,-0.0168,-0.0533,-0.0535,-0.0536,-0.0537,-0.0538,-0.0539,-0.034,-0.0302,-0.0269,-0.0154,-0.0067,-0.008,0.0054,-0.0035,-0.0124,-0.0081,0.0009,0.0009,-0.0275,-0.0074,-0.0073,-0.0072,-0.0071,-0.0071,-0.007,-0.0257,-0.0216,-0.01,-0.0003,0.0091,0.0207,0.0228,0.0269,0.0261,0.0201,0.0201,-0.0202,-0.0217,-0.0247,-0.0057,-0.006,-0.0061,-0.0062,-0.0063,-0.0129,-0.0108,0.0068,0.0175,0.0406,0.0734,0.0646,0.0782,0.0725,0.0774,0.0368,0.0354,0.0336,0.0308,0.0292,0.0609,0.0609,0.0609,0.0609,-0.0035,-0.0016,0.0245,0.0449,0.0695,0.0975,0.1422,0.1418,0.1147,0.0973,0.0956,0.0894,0.086,0.0863,0.0822,0.0811,0.1265,0.1266,0.1267,0.0069,0.0134,0.0347,0.0549,0.0831,0.1349,0.1937,0.1969,0.1484,0.1286,0.1002,0.0666,0.0524,0.049,0.0443,0.0399,0.036,0,0]}],[{"header":{"parameterUnit":"m.s-1","parameterCategory":2,"la1":30.2992,"la2":30.254,"lo1":-89.0895,"lo2":-89.0443,"dy":0.0025,"dx":0.0025,"nx":19,"ny":19,"refTime":"2026-03-16T21:00:00:Z","depth":"4","parameterNumber":2,"parameterNumberName":"U-component_of_CURRENTS"},"data":[0,0,0,0.1533,0.1536,0.1702,0.1702,0.1855,0.1856,0,0,0,0,0,0,0,0,0,0,0,0.1484,0.1485,0.1532,0.1537,0.1702,0.1702,0.1854,0.1856,0,0,0,0,0,0,0,0,0,0,0,0.1483,0.1485,0.1486,0.1537,0.1701,0.1702,0.1854,0.1744,0,0,0,0,0,0,0,0,0,0,0.1591,0.1556,0.1484,0.1487,0.1538,0.1701,0.1702,0.1739,0.1751,0.1763,0,0.1803,0,0.183,0.1865,0.1865,0,0,0,0.1536,0.1546,0.1589,0.1487,0.154,0.1701,0.1627,0.1746,0.1759,0.1778,0.1805,0.1811,0.1832,0.1866,0.1866,0.206,0.2061,0,0,0.1527,0.1513,0.158,0.1598,0.1601,0.1622,0.1632,0.1755,0.1775,0.1806,0.1815,0.1835,0.1867,0.1868,0.2059,0.206,0,0,0,0.1501,0.1506,0.1547,0.1591,0.1624,0.1626,0.1638,0.177,0.1784,0.1817,0.1837,0.1867,0.1869,0.2057,0.2059,0.2137,0,0,0,0.1495,0.1491,0.1543,0.1536,0.1623,0.1708,0.1651,0.1776,0.1791,0.1836,0.1867,0.187,0.2056,0.2058,0.2133,0.2146,0,0,0,0.1473,0.1488,0.1513,0.1535,0.1606,0.1707,0.1728,0.178,0.1802,0.1865,0.1871,0.2055,0.2058,0.2128,0.214,0.2279,0,0,0,0.1443,0.1478,0.1513,0.1566,0.1605,0.1706,0.1728,0.1815,0.1872,0.1868,0.2056,0.2059,0.2127,0.2136,0.2274,0.188,0,0,0,0.1459,0.148,0.1509,0.1544,0.163,0.1682,0.1795,0.1879,0.1918,0.2008,0.2014,0.2134,0.2139,0.2278,0.204,0,0,0,0,0.1495,0.1518,0.1552,0.1618,0.1695,0.1798,0.1877,0.1948,0.2086,0.1966,0.2167,0.2167,0.2253,0.2008,0.2072,0.2072,0.2071,0.2071,0.2071,0.1472,0.1523,0.1581,0.1663,0.1746,0.1887,0.1994,0.2111,0.2131,0.2228,0.2256,0.2443,0.2188,0.2295,0.2296,0.2296,0.2296,0.2297,0.2297,0.1474,0.1493,0.16,0.1678,0.1805,0.1922,0.213,0.2205,0.2416,0.2375,0.2457,0.2135,0.2306,0.2304,0.2303,0.2302,0.2301,0.23,0.23,0.1426,0.1438,0.152,0.1641,0.1797,0.1963,0.2134,0.231,0.2484,0.2576,0.238,0.2526,0.2495,0.2656,0.2657,0.2657,0.2658,0.2658,0.2659,0.1321,0.1399,0.1451,0.1604,0.1693,0.1874,0.2165,0.2289,0.2497,0.2429,0.2629,0.2565,0.2554,0.2518,0.267,0.2668,0.2666,0.2665,0.2665,0.1213,0.1269,0.1323,0.14,0.1589,0.1701,0.2013,0.2177,0.2331,0.2357,0.2371,0.2383,0.233,0.2325,0.2278,0.2365,0.236,0.2356,0,0.1116,0.1154,0.1191,0.1251,0.1353,0.1576,0.1677,0.187,0.208,0.2014,0.2351,0.2362,0.2368,0.2298,0.2287,0.2225,0,0,0,0.1029,0.1062,0.1033,0.1119,0.1211,0.1425,0.1691,0.1688,0.2057,0.2031,0.2244,0.2273,0.2417,0.2702,0.265,0.2635,0.2576,0,0]},{"header":{"parameterUnit":"m.s-1","parameterCategory":2,"la1":30.2992,"la2":30.254,"lo1":-89.0895,"lo2":-89.0443,"dy":0.0025,"dx":0.0025,"nx":19,"ny":19,"refTime":"2026-03-16T21:00:00:Z","depth":"4","parameterNumber":3,"parameterNumberName":"V-component_of_CURRENTS"},"data":[0,0,0,0.0725,0.0725,0.0717,0.0717,0.0657,0.0656,0,0,0,0,0,0,0,0,0,0,0,0.073,0.0731,0.0725,0.0725,0.0718,0.0717,0.0657,0.0656,0,0,0,0,0,0,0,0,0,0,0,0.073,0.0731,0.0731,0.0725,0.0718,0.0717,0.0657,0.0673,0,0,0,0,0,0,0,0,0,0,0.0685,0.0706,0.0731,0.0731,0.0725,0.0718,0.0717,0.0674,0.0672,0.0649,0,0.066,0,0.0658,0.0652,0.0652,0,0,0,0.0714,0.0708,0.0703,0.0731,0.0725,0.0718,0.0718,0.0673,0.067,0.0645,0.0659,0.0657,0.0657,0.0651,0.0651,0.0597,0.0597,0,0,0.0715,0.0727,0.0705,0.0702,0.0737,0.0718,0.0718,0.0672,0.0676,0.0659,0.0655,0.0656,0.0651,0.065,0.0598,0.0597,0,0,0,0.0723,0.0727,0.0724,0.0704,0.0708,0.0718,0.0718,0.0678,0.0677,0.0655,0.0656,0.0651,0.065,0.0598,0.0597,0.0693,0,0,0,0.0723,0.0733,0.0725,0.0731,0.071,0.0701,0.0725,0.068,0.0675,0.0656,0.0651,0.0649,0.0598,0.0598,0.0691,0.0764,0,0,0,0.0728,0.0733,0.0736,0.0732,0.0733,0.0702,0.0698,0.0679,0.0675,0.0651,0.0649,0.0598,0.0598,0.0689,0.0759,0.0725,0,0,0,0.0734,0.0769,0.0737,0.0776,0.0733,0.0757,0.0699,0.0704,0.0692,0.065,0.0598,0.0597,0.0688,0.0756,0.0723,0.0775,0,0,0,0.0784,0.0775,0.0799,0.077,0.0829,0.0756,0.0791,0.0744,0.0672,0.0607,0.0607,0.0692,0.0759,0.0725,0.0757,0,0,0,0,0.0819,0.0842,0.0852,0.0877,0.087,0.0869,0.0814,0.0761,0.0693,0.0665,0.0659,0.0698,0.0674,0.0696,0.0596,0.0596,0.0596,0.0596,0.0596,0.0899,0.0904,0.0966,0.0975,0.0981,0.0942,0.0911,0.0821,0.0752,0.0715,0.0751,0.0764,0.079,0.0703,0.0704,0.0704,0.0705,0.0705,0.0705,0.0997,0.1042,0.1053,0.1122,0.1111,0.113,0.1013,0.0945,0.0844,0.0791,0.076,0.0767,0.0714,0.0712,0.0711,0.071,0.0709,0.0709,0.0708,0.1061,0.1089,0.1139,0.1234,0.1295,0.126,0.1259,0.1137,0.0953,0.093,0.0881,0.0807,0.0825,0.089,0.089,0.089,0.089,0.089,0.089,0.111,0.1161,0.1261,0.1353,0.1436,0.1485,0.1402,0.1315,0.1128,0.1006,0.0951,0.0825,0.0819,0.0832,0.0893,0.0893,0.0892,0.0892,0.0892,0.1185,0.1221,0.1361,0.1463,0.1635,0.1659,0.1606,0.1394,0.1277,0.1125,0.1001,0.0995,0.0956,0.0946,0.0962,0.1064,0.1065,0.1066,0,0.1233,0.1258,0.1453,0.162,0.1745,0.1764,0.1656,0.1522,0.1259,0.1243,0.1235,0.1105,0.1096,0.1061,0.1053,0.1079,0,0,0,0.1282,0.1339,0.148,0.1655,0.1805,0.1705,0.1621,0.1528,0.1324,0.1212,0.1089,0.1083,0.1065,0.0902,0.0825,0.0817,0.0834,0,0]}]]